[[{"header":{"parameterUnit":"m.s-1","parameterCategory":1,"la1":30.2991,"la2":30.254,"lo1":-89.0895,"lo2":-89.0444,"dy":0.0017,"dx":0.0017,"nx":28,"ny":28,"refTime":"2024-12-04T09:00:00:Z","depth":0,"parameterNumber":2,"parameterNumberName":"U-component_of_WINDS"},"data":[0,0,0,0,0,0,0,0,0,0,0,0,0,0,0,0,0,0,0,0,0,0,0,0,0,0,0,0,0,0,0,0,0,0,0,0,0,0,0,0,0,0,0,0,0,0,0,0,0,0,0,0,0,0,0,0,0,0,-1.0767,-1.0767,0,-1.0781,-1.0781,-1.0782,-1.082,-1.082,-1.0821,-1.0822,-1.0836,-1.0835,-1.0835,0,0,0,0,0,0,0,0,0,0,0,0,0,-1.0772,-1.0771,-1.0767,-1.0767,-1.0768,-1.0781,-1.0782,-1.0782,-1.082,-1.0821,-1.0821,-1.0822,-1.0836,-1.0836,-1.0835,0,0,0,0,0,0,0,0,0,0,0,0,0,-1.0776,-1.0771,-1.0767,-1.0788,-1.079,-1.0781,-1.0782,-1.0782,-1.0819,-1.0821,-1.0822,-1.0823,-1.0836,-1.0836,-1.0835,-1.0807,0,0,-1.0833,-1.0833,0,0,0,0,0,0,0,0,-1.0776,-1.0776,-1.0785,-1.0787,-1.0789,-1.08,-1.0788,-1.079,-1.0819,-1.0808,-1.0822,-1.0824,-1.0823,-1.0823,-1.0823,-1.0807,-1.0808,-1.0833,-1.0833,-1.0832,-1.0832,0,0,0,0,0,0,0,-1.0775,-1.0776,-1.0773,-1.0785,-1.0787,-1.0796,-1.0798,-1.0789,-1.0808,-1.0809,-1.0812,-1.0813,-1.0824,-1.0824,-1.0824,-1.0808,-1.0833,-1.0833,-1.0832,-1.0832,-1.0768,-1.0767,0,0,0,0,0,0,-1.0772,-1.0775,-1.0772,-1.0773,-1.0785,-1.0795,-1.0798,-1.0795,-1.0809,-1.0812,-1.0812,-1.0815,-1.0824,-1.0825,-1.0825,-1.0791,-1.0832,-1.0832,-1.0832,-1.0769,-1.0768,-1.0766,0,0,0,0,0,0,-1.0772,-1.0772,-1.0772,-1.0775,-1.0776,-1.0794,-1.0791,-1.0795,-1.0795,-1.0811,-1.0815,-1.0808,-1.0825,-1.0825,-1.0811,-1.0793,-1.0832,-1.0831,-1.0771,-1.0769,-1.0767,-1.0725,0,0,0,0,0,0,-1.0772,-1.0771,-1.0761,-1.0774,-1.0775,-1.0758,-1.079,-1.0794,-1.0793,-1.0797,-1.0808,-1.0811,-1.0826,-1.0811,-1.081,-1.0792,-1.0831,-1.0773,-1.077,-1.0768,-1.0728,-1.0722,-1.0717,0,0,0,0,0,-1.0772,-1.0749,-1.0761,-1.076,-1.0763,-1.0757,-1.0757,-1.0775,-1.0792,-1.0782,-1.0792,-1.0811,-1.0795,-1.0809,-1.0808,-1.079,-1.0774,-1.0771,-1.0768,-1.0731,-1.0723,-1.0717,0,0,0,0,0,0,-1.0734,-1.0751,-1.0764,-1.0745,-1.0749,-1.0763,-1.0751,-1.0767,-1.0766,-1.077,-1.0792,-1.0794,-1.0776,-1.0782,-1.0798,-1.0763,-1.0787,-1.0784,-1.076,-1.0753,-1.0747,-1.0746,-1.083,0,0,0,0,0,-1.0723,-1.0717,-1.0733,-1.0714,-1.0715,-1.0732,-1.0731,-1.0744,-1.0749,-1.0751,-1.076,-1.0764,-1.076,-1.0757,-1.0754,-1.073,-1.0732,-1.0716,-1.0711,-1.0706,-1.0702,-1.0689,-1.0682,-1.0757,-1.0757,-1.0757,0,0,-1.0701,-1.071,-1.0705,-1.0706,-1.0711,-1.0704,-1.0734,-1.0725,-1.0719,-1.075,-1.0736,-1.0743,-1.0748,-1.0728,-1.072,-1.0733,-1.0682,-1.0702,-1.0698,-1.0697,-1.0685,-1.0678,-1.0671,-1.0754,-1.0755,-1.0755,0,0,-1.0657,-1.0663,-1.0648,-1.0652,-1.0658,-1.067,-1.0666,-1.0677,-1.0683,-1.0669,-1.0692,-1.0685,-1.0678,-1.068,-1.0681,-1.0636,-1.0653,-1.0634,-1.0604,-1.059,-1.0584,-1.0579,-1.0562,-1.0555,-1.0631,-1.0631,-1.0631,0,-1.0628,-1.0618,-1.0638,-1.0627,-1.0627,-1.0653,-1.0637,-1.064,-1.0645,-1.0644,-1.0658,-1.0648,-1.0654,-1.0635,-1.0623,-1.0623,-1.0619,-1.0633,-1.0583,-1.0578,-1.0574,-1.0558,-1.0551,-1.0628,-1.0629,-1.0629,-1.0629,0,-1.0582,-1.0575,-1.0562,-1.0565,-1.0564,-1.055,-1.0567,-1.0563,-1.0576,-1.0585,-1.057,-1.0578,-1.0577,-1.0573,-1.0586,-1.0555,-1.0562,-1.0579,-1.0604,-1.0564,-1.0549,-1.0543,-1.0625,-1.0626,-1.0626,-1.0627,0,0,-1.0515,-1.0529,-1.0524,-1.0525,-1.0534,-1.0528,-1.0515,-1.0514,-1.0509,-1.0511,-1.05,-1.0493,-1.0508,-1.0509,-1.0522,-1.051,-1.0472,-1.0529,-1.0529,-1.0517,-1.0437,-1.0423,-1.0416,-1.0484,-1.0483,-1.0482,-1.0436,0,-1.0473,-1.0452,-1.0468,-1.0444,-1.0437,-1.0461,-1.045,-1.0454,-1.0462,-1.0456,-1.0465,-1.0459,-1.0481,-1.0481,-1.047,-1.0479,-1.0456,-1.0483,-1.0473,-1.0472,-1.047,-1.0408,-1.0394,-1.035,-1.043,-1.0429,-1.0429,0,-1.0421,-1.042,-1.0395,-1.0404,-1.0401,-1.0391,-1.039,-1.0384,-1.0388,-1.0395,-1.0395,-1.0411,-1.0398,-1.0422,-1.0404,-1.0422,-1.0419,-1.0422,-1.0421,-1.0421,-1.0448,-1.0405,-1.0337,-1.033,-1.042,-1.042,-1.0421,0,-1.0373,-1.0366,-1.035,-1.035,-1.036,-1.0352,-1.0356,-1.0361,-1.0358,-1.0357,-1.0356,-1.0353,-1.0352,-1.0349,-1.0363,-1.038,-1.0343,-1.0369,-1.0347,-1.0347,-1.0338,-1.0339,-1.0268,-1.0337,-1.0337,-1.0337,-1.0338,0,-1.0324,-1.0307,-1.0328,-1.0318,-1.03,-1.0318,-1.03,-1.0306,-1.031,-1.0301,-1.0322,-1.0313,-1.0333,-1.0326,-1.0337,-1.032,-1.0319,-1.0324,-1.0327,-1.0321,-1.0321,-1.0319,-1.0322,-1.0336,-1.0336,-1.0336,-1.0337,0,-1.0268,-1.0281,-1.0265,-1.0275,-1.0277,-1.0263,-1.0272,-1.0262,-1.0272,-1.026,-1.0258,-1.0272,-1.0264,-1.0279,-1.0273,-1.0281,-1.0256,-1.0264,-1.0254,-1.0256,-1.0234,-1.0235,-1.0159,-1.015,-1.0226,-1.0225,-1.0224,0,-1.0235,-1.0223,-1.0231,-1.0227,-1.0229,-1.0221,-1.0219,-1.0236,-1.0232,-1.0234,-1.0224,-1.0218,-1.0215,-1.0201,-1.0211,-1.0206,-1.0214,-1.0187,-1.0213,-1.0208,-1.0212,-1.0212,-1.0211,-1.0182,-1.0181,-1.018,-1.018,0,-1.0176,-1.0182,-1.0178,-1.0174,-1.017,-1.0169,-1.0168,-1.0163,-1.0181,-1.0176,-1.0168,-1.0165,-1.0158,-1.0152,-1.0149,-1.0152,-1.0168,-1.0171,-1.0166,-1.016,-1.0155,-1.0156,-1.0239,-1.0173,-1.0174,-1.0174,-1.0175,-1.0175,-1.013,-1.012,-1.0123,-1.0117,-1.0118,-1.0117,-1.0108,-1.0116,-1.011,-1.0106,-1.0116,-1.0105,-1.0108,-1.0106,-1.0107,-1.0099,-1.011,-1.0103,-1.0101,-1.0098,-1.0094,-1.0156,-1.0098,-1.0099,-1.0099,-1.0099,-1.0099,0,-1.0071,-1.0074,-1.0068,-1.0066,-1.006,-1.0076,-1.0076,-1.007,-1.006,-1.0062,-1.0057,-1.0047,-1.004,-1.0049,-1.0043,-1.0034,-1.0042,-1.0032,-1.0033,-1.0033,-1.0085,-1.009,-1.0027,-1.0027,-1.0027,-1.0027,-1.0027,-1.0027,-1.004,-1.0022,-1.0029,-1.0012,-1.0015,-1.0005,-1.0003,-1.0002,-1.0003,-0.9991,-0.9985,-0.999,-0.9994,-0.9989,-0.9983,-0.9985,-0.9982,-0.997,-0.9975,-1.0023,-1.003,-1.0036,-1.0041,-0.9969,-0.9969,-0.9924,-0.9923,-0.9923]},{"header":{"parameterUnit":"m.s-1","parameterCategory":1,"la1":30.2991,"la2":30.254,"lo1":-89.0895,"lo2":-89.0444,"dy":0.0017,"dx":0.0017,"nx":28,"ny":28,"refTime":"2024-12-04T09:00:00:Z","depth":0,"parameterNumber":3,"parameterNumberName":"V-component_of_WINDS"},"data":[0,0,0,0,0,0,0,0,0,0,0,0,0,0,0,0,0,0,0,0,0,0,0,0,0,0,0,0,0,0,0,0,0,0,0,0,0,0,0,0,0,0,0,0,0,0,0,0,0,0,0,0,0,0,0,0,0,0,6.0859,6.0859,0,6.0835,6.0835,6.0835,6.0708,6.0705,6.0702,6.0699,6.0674,6.0676,6.0678,0,0,0,0,0,0,0,0,0,0,0,0,0,6.0797,6.0799,6.0859,6.0859,6.0859,6.0835,6.0835,6.0834,6.0708,6.0704,6.0701,6.0697,6.0673,6.0676,6.0678,0,0,0,0,0,0,0,0,0,0,0,0,0,6.0804,6.0799,6.0859,6.0793,6.0787,6.0835,6.0835,6.0834,6.0709,6.0704,6.07,6.0696,6.0672,6.0675,6.0679,6.0789,0,0,6.0689,6.069,0,0,0,0,0,0,0,0,6.0804,6.0806,6.0803,6.0797,6.0791,6.077,6.0804,6.0819,6.071,6.0738,6.0699,6.0693,6.0709,6.0709,6.0715,6.0788,6.0787,6.0689,6.0691,6.0692,6.0693,0,0,0,0,0,0,0,6.0803,6.0806,6.085,6.0803,6.0796,6.0765,6.076,6.0806,6.075,6.0736,6.0726,6.0725,6.0705,6.0712,6.0713,6.0787,6.0689,6.0692,6.0694,6.0695,6.0952,6.0957,0,0,0,0,0,0,6.0812,6.0807,6.085,6.0849,6.0786,6.0769,6.0765,6.0781,6.0749,6.0739,6.0729,6.0719,6.0709,6.071,6.0712,6.0841,6.0692,6.0695,6.0697,6.0948,6.0953,6.0959,0,0,0,0,0,0,6.0811,6.0817,6.0851,6.0825,6.0827,6.0775,6.0794,6.0783,6.0789,6.0744,6.0733,6.0746,6.0705,6.0707,6.0772,6.0838,6.0697,6.07,6.0942,6.0949,6.0956,6.1099,0,0,0,0,0,0,6.081,6.0818,6.0859,6.0827,6.0829,6.0911,6.0798,6.0786,6.0795,6.0782,6.0757,6.0749,6.0702,6.0767,6.0775,6.084,6.0702,6.0935,6.0945,6.0954,6.1088,6.1111,6.113,0,0,0,0,0,6.0808,6.0899,6.0861,6.0867,6.0879,6.0915,6.0917,6.0861,6.0801,6.0842,6.0814,6.0749,6.083,6.0775,6.0782,6.085,6.0931,6.0942,6.0953,6.1079,6.1106,6.1129,0,0,0,0,0,0,6.0938,6.0894,6.0851,6.0935,6.093,6.0894,6.0944,6.0891,6.0903,6.089,6.082,6.0816,6.0891,6.0876,6.0816,6.0956,6.087,6.0883,6.0963,6.0988,6.1009,6.1011,6.0705,0,0,0,0,0,6.0977,6.101,6.0969,6.1047,6.1047,6.0997,6.101,6.0968,6.096,6.0957,6.0933,6.0928,6.0952,6.0969,6.0989,6.1086,6.1079,6.1136,6.1156,6.1174,6.1186,6.1238,6.1263,6.0995,6.0995,6.0995,0,0,6.1057,6.1036,6.1061,6.1073,6.1064,6.11,6.0995,6.1037,6.1064,6.0963,6.1023,6.1006,6.0995,6.1077,6.1112,6.1067,6.1259,6.1188,6.1202,6.1204,6.1252,6.1278,6.13,6.1002,6.1001,6.1,0,0,6.1221,6.1208,6.1273,6.1267,6.1256,6.1222,6.1238,6.1211,6.1196,6.1255,6.118,6.1211,6.1254,6.1251,6.1254,6.1421,6.1363,6.143,6.1537,6.1589,6.1611,6.1629,6.169,6.1713,6.1442,6.1442,6.1442,0,6.1321,6.1373,6.1312,6.1361,6.1369,6.128,6.1346,6.1343,6.1339,6.1347,6.1297,6.1351,6.1337,6.1418,6.146,6.1465,6.1482,6.1432,6.1612,6.163,6.1647,6.1704,6.1727,6.145,6.1449,6.1449,6.1448,0,6.1498,6.1535,6.1589,6.1589,6.1602,6.1659,6.1608,6.163,6.1587,6.1559,6.1622,6.1603,6.1619,6.1635,6.1593,6.1711,6.1684,6.1625,6.1536,6.1681,6.1734,6.1756,6.1462,6.1459,6.1457,6.1455,0,0,6.1741,6.1709,6.173,6.173,6.1713,6.1741,6.1794,6.181,6.1831,6.1832,6.1876,6.1915,6.1861,6.1866,6.1823,6.1869,6.2005,6.1804,6.1802,6.1843,6.2135,6.2181,6.2207,6.1966,6.197,6.1973,6.2137,0,6.1899,6.1989,6.1938,6.2035,6.207,6.1989,6.2035,6.2031,6.2007,6.2033,6.2006,6.2036,6.1962,6.1964,6.2006,6.1979,6.2062,6.1967,6.2007,6.201,6.2013,6.2235,6.2282,6.2438,6.2157,6.216,6.2163,0,6.2095,6.2107,6.2208,6.2187,6.22,6.2243,6.2255,6.2281,6.2274,6.2254,6.2261,6.2208,6.226,6.2173,6.2245,6.2181,6.2195,6.2185,6.2189,6.2191,6.2095,6.2244,6.2486,6.251,6.2194,6.2192,6.219,0,6.2265,6.2305,6.2372,6.2374,6.2351,6.2383,6.2375,6.2364,6.2378,6.2389,6.2397,6.2414,6.2423,6.2437,6.239,6.2331,6.2469,6.2378,6.2455,6.2456,6.2487,6.2486,6.2736,6.2495,6.2495,6.2495,6.2494,0,6.2447,6.2513,6.2448,6.2489,6.2561,6.2502,6.2575,6.2558,6.255,6.2587,6.2516,6.2553,6.2488,6.2519,6.2482,6.2549,6.2553,6.2539,6.2528,6.2545,6.2548,6.2554,6.2542,6.2501,6.2499,6.2498,6.2497,0,6.2648,6.2607,6.2675,6.2648,6.2643,6.2698,6.2675,6.2712,6.2685,6.2733,6.274,6.2697,6.2729,6.2684,6.2711,6.2687,6.2778,6.2751,6.2781,6.2773,6.2854,6.2847,6.3117,6.315,6.2887,6.289,6.2892,0,6.2768,6.2817,6.2796,6.2817,6.2813,6.2846,6.2861,6.2805,6.2823,6.2822,6.286,6.2886,6.2904,6.296,6.2931,6.2952,6.2925,6.3018,6.2928,6.2945,6.2929,6.2927,6.2932,6.3037,6.304,6.3043,6.3045,0,6.2985,6.2963,6.2987,6.3005,6.3025,6.3036,6.3042,6.3062,6.3004,6.3029,6.3061,6.3076,6.3105,6.3132,6.3146,6.3138,6.3083,6.3074,6.3093,6.3111,6.3128,6.3122,6.2833,6.3068,6.3066,6.3064,6.3063,6.3062,6.3149,6.319,6.3183,6.3213,6.3212,6.322,6.3255,6.3233,6.3259,6.3279,6.3245,6.3287,6.3281,6.3295,6.3293,6.3325,6.3285,6.3312,6.3319,6.3327,6.334,6.3122,6.3327,6.3326,6.3326,6.3325,6.3325,0,6.3364,6.3356,6.3384,6.3396,6.342,6.3367,6.3372,6.3396,6.3434,6.3434,6.3454,6.3493,6.352,6.3495,6.3517,6.3548,6.3524,6.3556,6.3554,6.3553,6.3374,6.3356,6.3576,6.3576,6.3576,6.3576,6.3576,6.3575,6.3479,6.3546,6.3524,6.3591,6.3582,6.3624,6.3632,6.3639,6.3639,6.3686,6.3709,6.3692,6.3682,6.3704,6.3727,6.3719,6.3731,6.3773,6.3756,6.359,6.3565,6.3542,6.3525,6.3776,6.3776,6.3932,6.3934,6.3935]}]]